{"data":{"norad_id":67949,"epoch":"2026-05-24T23:35:09.377952Z","epoch_age_seconds":73547,"freshness":"FRESH","line1":"1 67949U 26037T   26144.98274743  .00011901  00000+0  44109-3 0  9996","line2":"2 67949  43.0001 119.4251 0001146 260.4992  99.5730 15.27594782 15012","mean_motion":15.27594782,"eccentricity":0.0001146,"inclination_deg":43.0001,"raan_deg":119.4251,"arg_perigee_deg":260.4992,"mean_anomaly_deg":99.573,"bstar":0.00044109,"rev_number":1501,"period_min":94.265836527321,"perigee_km":482.21854691663,"apogee_km":483.79112062493,"semimajor_km":6861.1418337708,"source":"CELESTRAK","updated_at":"2026-05-25T13:38:21.769849Z"}}